Year,Month,Day,Hour,Minute,Value (Times are PST for insolation in W/m^2)
2017,04,19,00,00,0.00
2017,04,19,00,01,0.00
2017,04,19,00,02,0.00
2017,04,19,00,03,0.00
2017,04,19,00,04,0.00
2017,04,19,00,05,0.00
2017,04,19,00,06,0.00
2017,04,19,00,07,0.00
2017,04,19,00,08,0.00
2017,04,19,00,09,0.00
2017,04,19,00,10,0.00
2017,04,19,00,11,0.00
2017,04,19,00,12,0.00
2017,04,19,00,13,0.00
2017,04,19,00,14,0.00
2017,04,19,00,15,0.00
2017,04,19,00,16,0.00
2017,04,19,00,17,0.00
2017,04,19,00,18,0.00
2017,04,19,00,19,0.00
2017,04,19,00,20,0.00
2017,04,19,00,21,0.00
2017,04,19,00,22,0.00
2017,04,19,00,23,0.00
2017,04,19,00,24,0.00
2017,04,19,00,25,0.00
2017,04,19,00,26,0.00
2017,04,19,00,27,0.00
2017,04,19,00,28,0.00
2017,04,19,00,29,0.00
2017,04,19,00,30,0.00
2017,04,19,00,31,0.00
2017,04,19,00,32,0.00
2017,04,19,00,33,0.00
2017,04,19,00,34,0.00
2017,04,19,00,35,0.00
2017,04,19,00,36,0.00
2017,04,19,00,37,0.00
2017,04,19,00,38,0.00
2017,04,19,00,39,0.00
2017,04,19,00,40,0.00
2017,04,19,00,41,0.00
2017,04,19,00,42,0.00
2017,04,19,00,43,0.00
2017,04,19,00,44,0.00
2017,04,19,00,45,0.00
2017,04,19,00,46,0.00
2017,04,19,00,47,0.00
2017,04,19,00,48,0.00
2017,04,19,00,49,0.00
2017,04,19,00,50,0.00
2017,04,19,00,51,0.00
2017,04,19,00,52,0.00
2017,04,19,00,53,0.00
2017,04,19,00,54,0.00
2017,04,19,00,55,0.00
2017,04,19,00,56,0.00
2017,04,19,00,57,0.00
2017,04,19,00,58,0.00
2017,04,19,00,59,0.00
2017,04,19,01,00,0.00
2017,04,19,01,01,0.00
2017,04,19,01,02,0.00
2017,04,19,01,03,0.00
2017,04,19,01,04,0.00
2017,04,19,01,05,0.00
2017,04,19,01,06,0.00
2017,04,19,01,07,0.00
2017,04,19,01,08,0.00
2017,04,19,01,09,0.00
2017,04,19,01,10,0.00
2017,04,19,01,11,0.00
2017,04,19,01,12,0.00
2017,04,19,01,13,0.00
2017,04,19,01,14,0.00
2017,04,19,01,15,0.00
2017,04,19,01,16,0.00
2017,04,19,01,17,0.00
2017,04,19,01,18,0.00
2017,04,19,01,19,0.00
2017,04,19,01,20,0.00
2017,04,19,01,21,0.00
2017,04,19,01,22,0.00
2017,04,19,01,23,0.00
2017,04,19,01,24,0.00
2017,04,19,01,25,0.00
2017,04,19,01,26,0.00
2017,04,19,01,27,0.00
2017,04,19,01,28,0.00
2017,04,19,01,29,0.00
2017,04,19,01,30,0.00
2017,04,19,01,31,0.00
2017,04,19,01,32,0.00
2017,04,19,01,33,0.00
2017,04,19,01,34,0.00
2017,04,19,01,35,0.00
2017,04,19,01,36,0.00
2017,04,19,01,37,0.00
2017,04,19,01,38,0.00
2017,04,19,01,39,0.00
2017,04,19,01,40,0.00
2017,04,19,01,41,0.00
2017,04,19,01,42,0.00
2017,04,19,01,43,0.00
2017,04,19,01,44,0.00
2017,04,19,01,45,0.00
2017,04,19,01,46,0.00
2017,04,19,01,47,0.00
2017,04,19,01,48,0.00
2017,04,19,01,49,0.00
2017,04,19,01,50,0.00
2017,04,19,01,51,0.00
2017,04,19,01,52,0.00
2017,04,19,01,53,0.00
2017,04,19,01,54,0.00
2017,04,19,01,55,0.00
2017,04,19,01,56,0.00
2017,04,19,01,57,0.00
2017,04,19,01,58,0.00
2017,04,19,01,59,0.00
2017,04,19,02,00,0.00
2017,04,19,02,01,0.00
2017,04,19,02,02,0.00
2017,04,19,02,03,0.00
2017,04,19,02,04,0.00
2017,04,19,02,05,0.00
2017,04,19,02,06,0.00
2017,04,19,02,07,0.00
2017,04,19,02,08,0.00
2017,04,19,02,09,0.00
2017,04,19,02,10,0.00
2017,04,19,02,11,0.00
2017,04,19,02,12,0.00
2017,04,19,02,13,0.00
2017,04,19,02,14,0.00
2017,04,19,02,15,0.00
2017,04,19,02,16,0.00
2017,04,19,02,17,0.00
2017,04,19,02,18,0.00
2017,04,19,02,19,0.00
2017,04,19,02,20,0.00
2017,04,19,02,21,0.00
2017,04,19,02,22,0.00
2017,04,19,02,23,0.00
2017,04,19,02,24,0.00
2017,04,19,02,25,0.00
2017,04,19,02,26,0.00
2017,04,19,02,27,0.00
2017,04,19,02,28,0.00
2017,04,19,02,29,0.00
2017,04,19,02,30,0.00
2017,04,19,02,31,0.00
2017,04,19,02,32,0.00
2017,04,19,02,33,0.00
2017,04,19,02,34,0.00
2017,04,19,02,35,0.00
2017,04,19,02,36,0.00
2017,04,19,02,37,0.00
2017,04,19,02,38,0.00
2017,04,19,02,39,0.00
2017,04,19,02,40,0.00
2017,04,19,02,41,0.00
2017,04,19,02,42,0.00
2017,04,19,02,43,0.00
2017,04,19,02,44,0.00
2017,04,19,02,45,0.00
2017,04,19,02,46,0.00
2017,04,19,02,47,0.00
2017,04,19,02,48,0.00
2017,04,19,02,49,0.00
2017,04,19,02,50,0.00
2017,04,19,02,51,0.00
2017,04,19,02,52,0.00
2017,04,19,02,53,0.00
2017,04,19,02,54,0.00
2017,04,19,02,55,0.00
2017,04,19,02,56,0.00
2017,04,19,02,57,0.00
2017,04,19,02,58,0.00
2017,04,19,02,59,0.00
2017,04,19,03,00,0.00
2017,04,19,03,01,0.00
2017,04,19,03,02,0.00
2017,04,19,03,03,0.00
2017,04,19,03,04,0.00
2017,04,19,03,05,0.00
2017,04,19,03,06,0.00
2017,04,19,03,07,0.00
2017,04,19,03,08,0.00
2017,04,19,03,09,0.00
2017,04,19,03,10,0.00
2017,04,19,03,11,0.00
2017,04,19,03,12,0.00
2017,04,19,03,13,0.00
2017,04,19,03,14,0.00
2017,04,19,03,15,0.00
2017,04,19,03,16,0.00
2017,04,19,03,17,0.00
2017,04,19,03,18,0.00
2017,04,19,03,19,0.00
2017,04,19,03,20,0.00
2017,04,19,03,21,0.00
2017,04,19,03,22,0.00
2017,04,19,03,23,0.00
2017,04,19,03,24,0.00
2017,04,19,03,25,0.00
2017,04,19,03,26,0.00
2017,04,19,03,27,0.00
2017,04,19,03,28,0.00
2017,04,19,03,29,0.00
2017,04,19,03,30,0.00
2017,04,19,03,31,0.00
2017,04,19,03,32,0.00
2017,04,19,03,33,0.00
2017,04,19,03,34,0.00
2017,04,19,03,35,0.00
2017,04,19,03,36,0.00
2017,04,19,03,37,0.00
2017,04,19,03,38,0.00
2017,04,19,03,39,0.00
2017,04,19,03,40,0.00
2017,04,19,03,41,0.00
2017,04,19,03,42,0.00
2017,04,19,03,43,0.00
2017,04,19,03,44,0.00
2017,04,19,03,45,0.00
2017,04,19,03,46,0.00
2017,04,19,03,47,0.00
2017,04,19,03,48,0.00
2017,04,19,03,49,0.00
2017,04,19,03,50,0.00
2017,04,19,03,51,0.00
2017,04,19,03,52,0.00
2017,04,19,03,53,0.00
2017,04,19,03,54,0.00
2017,04,19,03,55,0.00
2017,04,19,03,56,0.00
2017,04,19,03,57,0.00
2017,04,19,03,58,0.00
2017,04,19,03,59,0.00
2017,04,19,04,00,0.00
2017,04,19,04,01,0.00
2017,04,19,04,02,0.00
2017,04,19,04,03,0.00
2017,04,19,04,04,0.00
2017,04,19,04,05,0.00
2017,04,19,04,06,0.00
2017,04,19,04,07,0.00
2017,04,19,04,08,0.00
2017,04,19,04,09,0.00
2017,04,19,04,10,0.00
2017,04,19,04,11,0.00
2017,04,19,04,12,0.00
2017,04,19,04,13,0.00
2017,04,19,04,14,0.00
2017,04,19,04,15,0.00
2017,04,19,04,16,0.00
2017,04,19,04,17,0.00
2017,04,19,04,18,0.00
2017,04,19,04,19,0.00
2017,04,19,04,20,0.00
2017,04,19,04,21,0.00
2017,04,19,04,22,0.00
2017,04,19,04,23,0.00
2017,04,19,04,24,0.00
2017,04,19,04,25,0.00
2017,04,19,04,26,0.00
2017,04,19,04,27,0.00
2017,04,19,04,28,0.00
2017,04,19,04,29,0.00
2017,04,19,04,30,0.00
2017,04,19,04,31,0.00
2017,04,19,04,32,0.00
2017,04,19,04,33,0.00
2017,04,19,04,34,0.00
2017,04,19,04,35,0.00
2017,04,19,04,36,0.00
2017,04,19,04,37,0.00
2017,04,19,04,38,0.00
2017,04,19,04,39,0.00
2017,04,19,04,40,0.00
2017,04,19,04,41,0.00
2017,04,19,04,42,0.00
2017,04,19,04,43,0.00
2017,04,19,04,44,0.00
2017,04,19,04,45,0.00
2017,04,19,04,46,0.00
2017,04,19,04,47,0.00
2017,04,19,04,48,0.00
2017,04,19,04,49,0.00
2017,04,19,04,50,0.00
2017,04,19,04,51,0.00
2017,04,19,04,52,0.00
2017,04,19,04,53,0.00
2017,04,19,04,54,0.00
2017,04,19,04,55,0.00
2017,04,19,04,56,0.00
2017,04,19,04,57,0.00
2017,04,19,04,58,0.00
2017,04,19,04,59,0.00
2017,04,19,05,00,0.00
2017,04,19,05,01,0.00
2017,04,19,05,02,0.00
2017,04,19,05,03,0.00
2017,04,19,05,04,0.00
2017,04,19,05,05,0.00
2017,04,19,05,06,0.00
2017,04,19,05,07,0.00
2017,04,19,05,08,0.00
2017,04,19,05,09,0.00
2017,04,19,05,10,0.00
2017,04,19,05,11,0.00
2017,04,19,05,12,0.00
2017,04,19,05,13,0.00
2017,04,19,05,14,0.00
2017,04,19,05,15,0.00
2017,04,19,05,16,0.00
2017,04,19,05,17,0.00
2017,04,19,05,18,0.00
2017,04,19,05,19,0.00
2017,04,19,05,20,0.00
2017,04,19,05,21,0.00
2017,04,19,05,22,0.00
2017,04,19,05,23,0.00
2017,04,19,05,24,0.00
2017,04,19,05,25,0.00
2017,04,19,05,26,0.00
2017,04,19,05,27,0.00
2017,04,19,05,28,0.00
2017,04,19,05,29,0.00
2017,04,19,05,30,0.00
2017,04,19,05,31,0.00
2017,04,19,05,32,0.00
2017,04,19,05,33,0.00
2017,04,19,05,34,0.00
2017,04,19,05,35,0.00
2017,04,19,05,36,0.00
2017,04,19,05,37,0.00
2017,04,19,05,38,0.00
2017,04,19,05,39,0.00
2017,04,19,05,40,0.00
2017,04,19,05,41,0.00
2017,04,19,05,42,0.00
2017,04,19,05,43,0.00
2017,04,19,05,44,0.00
2017,04,19,05,45,0.00
2017,04,19,05,46,0.00
2017,04,19,05,47,0.00
2017,04,19,05,48,0.00
2017,04,19,05,49,0.00
2017,04,19,05,50,0.00
2017,04,19,05,51,0.00
2017,04,19,05,52,0.00
2017,04,19,05,53,0.00
2017,04,19,05,54,0.00
2017,04,19,05,55,0.00
2017,04,19,05,56,0.00
2017,04,19,05,57,0.00
2017,04,19,05,58,0.00
2017,04,19,05,59,0.00
2017,04,19,06,00,0.00
2017,04,19,06,01,0.00
2017,04,19,06,02,0.00
2017,04,19,06,03,0.00
2017,04,19,06,04,0.00
2017,04,19,06,05,0.00
2017,04,19,06,06,0.00
2017,04,19,06,07,0.00
2017,04,19,06,08,0.00
2017,04,19,06,09,0.00
2017,04,19,06,10,0.00
2017,04,19,06,11,0.00
2017,04,19,06,12,0.00
2017,04,19,06,13,0.00
2017,04,19,06,14,0.00
2017,04,19,06,15,0.00
2017,04,19,06,16,0.00
2017,04,19,06,17,0.00
2017,04,19,06,18,0.00
2017,04,19,06,19,0.00
2017,04,19,06,20,0.00
2017,04,19,06,21,0.00
2017,04,19,06,22,0.00
2017,04,19,06,23,0.00
2017,04,19,06,24,0.00
2017,04,19,06,25,0.00
2017,04,19,06,26,0.00
2017,04,19,06,27,0.00
2017,04,19,06,28,0.00
2017,04,19,06,29,0.00
2017,04,19,06,30,0.00
2017,04,19,06,31,0.00
2017,04,19,06,32,0.00
2017,04,19,06,33,0.00
2017,04,19,06,34,0.00
2017,04,19,06,35,0.20
2017,04,19,06,36,5.00
2017,04,19,06,37,5.00
2017,04,19,06,38,5.00
2017,04,19,06,39,5.00
2017,04,19,06,40,5.00
2017,04,19,06,41,5.00
2017,04,19,06,42,6.90
2017,04,19,06,43,7.00
2017,04,19,06,44,7.60
2017,04,19,06,45,9.00
2017,04,19,06,46,9.00
2017,04,19,06,47,10.30
2017,04,19,06,48,11.00
2017,04,19,06,49,11.90
2017,04,19,06,50,12.40
2017,04,19,06,51,14.00
2017,04,19,06,52,14.00
2017,04,19,06,53,14.00
2017,04,19,06,54,14.00
2017,04,19,06,55,14.00
2017,04,19,06,56,13.90
2017,04,19,06,57,12.00
2017,04,19,06,58,12.00
2017,04,19,06,59,12.90
2017,04,19,07,00,14.00
2017,04,19,07,01,15.30
2017,04,19,07,02,17.60
2017,04,19,07,03,18.90
2017,04,19,07,04,19.30
2017,04,19,07,05,21.60
2017,04,19,07,06,23.00
2017,04,19,07,07,23.00
2017,04,19,07,08,23.00
2017,04,19,07,09,24.60
2017,04,19,07,10,25.00
2017,04,19,07,11,25.20
2017,04,19,07,12,26.50
2017,04,19,07,13,28.80
2017,04,19,07,14,31.60
2017,04,19,07,15,34.30
2017,04,19,07,16,36.60
2017,04,19,07,17,37.10
2017,04,19,07,18,39.00
2017,04,19,07,19,39.00
2017,04,19,07,20,39.00
2017,04,19,07,21,36.80
2017,04,19,07,22,33.70
2017,04,19,07,23,32.20
2017,04,19,07,24,30.20
2017,04,19,07,25,30.00
2017,04,19,07,26,30.00
2017,04,19,07,27,30.80
2017,04,19,07,28,32.00
2017,04,19,07,29,32.00
2017,04,19,07,30,30.40
2017,04,19,07,31,30.00
2017,04,19,07,32,29.60
2017,04,19,07,33,28.00
2017,04,19,07,34,27.20
2017,04,19,07,35,25.50
2017,04,19,07,36,23.70
2017,04,19,07,37,21.50
2017,04,19,07,38,19.10
2017,04,19,07,39,19.00
2017,04,19,07,40,19.50
2017,04,19,07,41,21.00
2017,04,19,07,42,23.20
2017,04,19,07,43,25.70
2017,04,19,07,44,26.00
2017,04,19,07,45,27.80
2017,04,19,07,46,28.40
2017,04,19,07,47,30.00
2017,04,19,07,48,30.00
2017,04,19,07,49,31.10
2017,04,19,07,50,32.00
2017,04,19,07,51,32.00
2017,04,19,07,52,33.00
2017,04,19,07,53,35.30
2017,04,19,07,54,37.90
2017,04,19,07,55,40.80
2017,04,19,07,56,43.10
2017,04,19,07,57,46.00
2017,04,19,07,58,48.60
2017,04,19,07,59,50.80
2017,04,19,08,00,52.80
2017,04,19,08,01,65.10
2017,04,19,08,02,73.20
2017,04,19,08,03,83.10
2017,04,19,08,04,94.20
2017,04,19,08,05,97.80
2017,04,19,08,06,95.10
2017,04,19,08,07,89.70
2017,04,19,08,08,88.00
2017,04,19,08,09,86.00
2017,04,19,08,10,83.00
2017,04,19,08,11,85.00
2017,04,19,08,12,87.60
2017,04,19,08,13,90.90
2017,04,19,08,14,93.60
2017,04,19,08,15,98.50
2017,04,19,08,16,104.80
2017,04,19,08,17,109.00
2017,04,19,08,18,104.40
2017,04,19,08,19,93.20
2017,04,19,08,20,77.80
2017,04,19,08,21,63.30
2017,04,19,08,22,52.50
2017,04,19,08,23,47.80
2017,04,19,08,24,46.00
2017,04,19,08,25,46.00
2017,04,19,08,26,46.00
2017,04,19,08,27,46.90
2017,04,19,08,28,47.60
2017,04,19,08,29,51.60
2017,04,19,08,30,53.40
2017,04,19,08,31,53.50
2017,04,19,08,32,50.40
2017,04,19,08,33,46.60
2017,04,19,08,34,42.30
2017,04,19,08,35,40.30
2017,04,19,08,36,42.60
2017,04,19,08,37,44.90
2017,04,19,08,38,47.60
2017,04,19,08,39,52.20
2017,04,19,08,40,58.80
2017,04,19,08,41,64.70
2017,04,19,08,42,70.00
2017,04,19,08,43,74.60
2017,04,19,08,44,75.20
2017,04,19,08,45,71.80
2017,04,19,08,46,68.00
2017,04,19,08,47,65.40
2017,04,19,08,48,63.00
2017,04,19,08,49,59.20
2017,04,19,08,50,55.10
2017,04,19,08,51,52.20
2017,04,19,08,52,52.10
2017,04,19,08,53,53.70
2017,04,19,08,54,55.60
2017,04,19,08,55,61.50
2017,04,19,08,56,65.00
2017,04,19,08,57,68.60
2017,04,19,08,58,79.50
2017,04,19,08,59,87.40
2017,04,19,09,00,98.20
2017,04,19,09,01,114.80
2017,04,19,09,02,136.10
2017,04,19,09,03,161.80
2017,04,19,09,04,191.20
2017,04,19,09,05,186.00
2017,04,19,09,06,189.90
2017,04,19,09,07,216.80
2017,04,19,09,08,181.20
2017,04,19,09,09,156.60
2017,04,19,09,10,140.80
2017,04,19,09,11,133.40
2017,04,19,09,12,132.00
2017,04,19,09,13,133.10
2017,04,19,09,14,135.90
2017,04,19,09,15,137.00
2017,04,19,09,16,136.80
2017,04,19,09,17,132.00
2017,04,19,09,18,132.60
2017,04,19,09,19,136.80
2017,04,19,09,20,148.70
2017,04,19,09,21,166.60
2017,04,19,09,22,189.20
2017,04,19,09,23,257.90
2017,04,19,09,24,225.20
2017,04,19,09,25,200.70
2017,04,19,09,26,190.20
2017,04,19,09,27,183.20
2017,04,19,09,28,181.00
2017,04,19,09,29,184.20
2017,04,19,09,30,172.30
2017,04,19,09,31,165.30
2017,04,19,09,32,168.20
2017,04,19,09,33,174.40
2017,04,19,09,34,180.80
2017,04,19,09,35,186.20
2017,04,19,09,36,193.60
2017,04,19,09,37,201.30
2017,04,19,09,38,205.10
2017,04,19,09,39,227.20
2017,04,19,09,40,240.10
2017,04,19,09,41,248.10
2017,04,19,09,42,260.10
2017,04,19,09,43,275.40
2017,04,19,09,44,318.90
2017,04,19,09,45,328.90
2017,04,19,09,46,320.50
2017,04,19,09,47,331.40
2017,04,19,09,48,343.00
2017,04,19,09,49,329.30
2017,04,19,09,50,331.20
2017,04,19,09,51,339.60
2017,04,19,09,52,332.80
2017,04,19,09,53,334.20
2017,04,19,09,54,331.60
2017,04,19,09,55,310.90
2017,04,19,09,56,282.90
2017,04,19,09,57,270.80
2017,04,19,09,58,260.00
2017,04,19,09,59,240.20
2017,04,19,10,00,223.90
2017,04,19,10,01,207.40
2017,04,19,10,02,192.90
2017,04,19,10,03,184.60
2017,04,19,10,04,181.40
2017,04,19,10,05,183.00
2017,04,19,10,06,186.30
2017,04,19,10,07,188.00
2017,04,19,10,08,186.80
2017,04,19,10,09,182.80
2017,04,19,10,10,176.40
2017,04,19,10,11,168.30
2017,04,19,10,12,156.60
2017,04,19,10,13,146.30
2017,04,19,10,14,138.40
2017,04,19,10,15,137.80
2017,04,19,10,16,140.50
2017,04,19,10,17,145.90
2017,04,19,10,18,154.40
2017,04,19,10,19,168.50
2017,04,19,10,20,185.30
2017,04,19,10,21,197.70
2017,04,19,10,22,204.00
2017,04,19,10,23,213.90
2017,04,19,10,24,227.00
2017,04,19,10,25,227.40
2017,04,19,10,26,221.50
2017,04,19,10,27,221.60
2017,04,19,10,28,225.00
2017,04,19,10,29,225.00
2017,04,19,10,30,223.90
2017,04,19,10,31,225.60
2017,04,19,10,32,229.40
2017,04,19,10,33,236.50
2017,04,19,10,34,241.60
2017,04,19,10,35,246.10
2017,04,19,10,36,252.70
2017,04,19,10,37,253.90
2017,04,19,10,38,253.00
2017,04,19,10,39,250.60
2017,04,19,10,40,243.30
2017,04,19,10,41,234.20
2017,04,19,10,42,224.90
2017,04,19,10,43,215.60
2017,04,19,10,44,202.40
2017,04,19,10,45,187.90
2017,04,19,10,46,173.90
2017,04,19,10,47,160.60
2017,04,19,10,48,147.80
2017,04,19,10,49,138.90
2017,04,19,10,50,131.60
2017,04,19,10,51,126.30
2017,04,19,10,52,125.00
2017,04,19,10,53,127.40
2017,04,19,10,54,134.50
2017,04,19,10,55,139.00
2017,04,19,10,56,139.60
2017,04,19,10,57,141.40
2017,04,19,10,58,142.00
2017,04,19,10,59,137.40
2017,04,19,11,00,127.00
2017,04,19,11,01,120.60
2017,04,19,11,02,121.30
2017,04,19,11,03,124.20
2017,04,19,11,04,129.00
2017,04,19,11,05,134.80
2017,04,19,11,06,141.90
2017,04,19,11,07,144.00
2017,04,19,11,08,141.50
2017,04,19,11,09,128.00
2017,04,19,11,10,117.90
2017,04,19,11,11,112.20
2017,04,19,11,12,109.90
2017,04,19,11,13,107.70
2017,04,19,11,14,108.60
2017,04,19,11,15,110.90
2017,04,19,11,16,112.70
2017,04,19,11,17,111.60
2017,04,19,11,18,116.00
2017,04,19,11,19,124.20
2017,04,19,11,20,136.40
2017,04,19,11,21,147.40
2017,04,19,11,22,155.60
2017,04,19,11,23,162.40
2017,04,19,11,24,164.10
2017,04,19,11,25,159.60
2017,04,19,11,26,153.20
2017,04,19,11,27,147.80
2017,04,19,11,28,140.50
2017,04,19,11,29,134.40
2017,04,19,11,30,132.30
2017,04,19,11,31,135.50
2017,04,19,11,32,141.80
2017,04,19,11,33,148.80
2017,04,19,11,34,152.30
2017,04,19,11,35,153.00
2017,04,19,11,36,151.10
2017,04,19,11,37,149.00
2017,04,19,11,38,149.60
2017,04,19,11,39,153.00
2017,04,19,11,40,156.00
2017,04,19,11,41,157.40
2017,04,19,11,42,163.60
2017,04,19,11,43,177.30
2017,04,19,11,44,191.40
2017,04,19,11,45,202.60
2017,04,19,11,46,219.60
2017,04,19,11,47,240.80
2017,04,19,11,48,254.20
2017,04,19,11,49,262.80
2017,04,19,11,50,266.50
2017,04,19,11,51,261.40
2017,04,19,11,52,260.10
2017,04,19,11,53,277.00
2017,04,19,11,54,326.40
2017,04,19,11,55,383.10
2017,04,19,11,56,406.70
2017,04,19,11,57,409.00
2017,04,19,11,58,391.00
2017,04,19,11,59,368.90
2017,04,19,12,00,351.40
2017,04,19,12,01,340.90
2017,04,19,12,02,341.60
2017,04,19,12,03,350.20
2017,04,19,12,04,365.10
2017,04,19,12,05,379.50
2017,04,19,12,06,407.40
2017,04,19,12,07,438.20
2017,04,19,12,08,485.20
2017,04,19,12,09,539.20
2017,04,19,12,10,548.50
2017,04,19,12,11,470.20
2017,04,19,12,12,420.40
2017,04,19,12,13,411.60
2017,04,19,12,14,416.60
2017,04,19,12,15,422.00
2017,04,19,12,16,423.30
2017,04,19,12,17,422.40
2017,04,19,12,18,409.40
2017,04,19,12,19,409.00
2017,04,19,12,20,424.00
2017,04,19,12,21,464.60
2017,04,19,12,22,507.80
2017,04,19,12,23,537.80
2017,04,19,12,24,564.20
2017,04,19,12,25,568.00
2017,04,19,12,26,553.20
2017,04,19,12,27,538.80
2017,04,19,12,28,525.40
2017,04,19,12,29,521.10
2017,04,19,12,30,517.20
2017,04,19,12,31,506.80
2017,04,19,12,32,502.30
2017,04,19,12,33,484.80
2017,04,19,12,34,472.40
2017,04,19,12,35,462.00
2017,04,19,12,36,459.00
2017,04,19,12,37,450.50
2017,04,19,12,38,447.60
2017,04,19,12,39,454.80
2017,04,19,12,40,465.80
2017,04,19,12,41,475.10
2017,04,19,12,42,470.20
2017,04,19,12,43,463.20
2017,04,19,12,44,456.30
2017,04,19,12,45,449.40
2017,04,19,12,46,443.00
2017,04,19,12,47,437.70
2017,04,19,12,48,434.50
2017,04,19,12,49,430.20
2017,04,19,12,50,429.00
2017,04,19,12,51,427.70
2017,04,19,12,52,421.70
2017,04,19,12,53,424.20
2017,04,19,12,54,434.70
2017,04,19,12,55,427.90
2017,04,19,12,56,434.80
2017,04,19,12,57,463.80
2017,04,19,12,58,487.40
2017,04,19,12,59,514.00
2017,04,19,13,00,549.70
2017,04,19,13,01,532.20
2017,04,19,13,02,523.30
2017,04,19,13,03,509.20
2017,04,19,13,04,509.10
2017,04,19,13,05,538.00
2017,04,19,13,06,523.80
2017,04,19,13,07,460.70
2017,04,19,13,08,436.80
2017,04,19,13,09,421.90
2017,04,19,13,10,413.40
2017,04,19,13,11,403.00
2017,04,19,13,12,394.20
2017,04,19,13,13,392.00
2017,04,19,13,14,394.60
2017,04,19,13,15,417.50
2017,04,19,13,16,481.90
2017,04,19,13,17,547.00
2017,04,19,13,18,547.00
2017,04,19,13,19,547.00
2017,04,19,13,20,652.90
2017,04,19,13,21,686.00
2017,04,19,13,22,707.60
2017,04,19,13,23,834.20
2017,04,19,13,24,819.20
2017,04,19,13,25,782.00
2017,04,19,13,26,782.00
2017,04,19,13,27,782.00
2017,04,19,13,28,767.00
2017,04,19,13,29,723.80
2017,04,19,13,30,728.00
2017,04,19,13,31,659.00
2017,04,19,13,32,569.90
2017,04,19,13,33,554.20
2017,04,19,13,34,636.20
2017,04,19,13,35,649.00
2017,04,19,13,36,652.00
2017,04,19,13,37,674.00
2017,04,19,13,38,663.20
2017,04,19,13,39,584.50
2017,04,19,13,40,498.00
2017,04,19,13,41,447.40
2017,04,19,13,42,427.20
2017,04,19,13,43,407.00
2017,04,19,13,44,410.30
2017,04,19,13,45,374.00
2017,04,19,13,46,384.80
2017,04,19,13,47,390.10
2017,04,19,13,48,378.60
2017,04,19,13,49,405.60
2017,04,19,13,50,357.70
2017,04,19,13,51,345.90
2017,04,19,13,52,341.00
2017,04,19,13,53,332.20
2017,04,19,13,54,323.70
2017,04,19,13,55,333.40
2017,04,19,13,56,330.50
2017,04,19,13,57,325.30
2017,04,19,13,58,313.80
2017,04,19,13,59,301.20
2017,04,19,14,00,298.10
2017,04,19,14,01,302.20
2017,04,19,14,02,315.20
2017,04,19,14,03,321.40
2017,04,19,14,04,317.70
2017,04,19,14,05,319.90
2017,04,19,14,06,329.00
2017,04,19,14,07,418.60
2017,04,19,14,08,470.50
2017,04,19,14,09,403.80
2017,04,19,14,10,412.40
2017,04,19,14,11,480.00
2017,04,19,14,12,534.00
2017,04,19,14,13,696.00
2017,04,19,14,14,647.00
2017,04,19,14,15,570.00
2017,04,19,14,16,519.80
2017,04,19,14,17,493.70
2017,04,19,14,18,494.00
2017,04,19,14,19,557.10
2017,04,19,14,20,675.40
2017,04,19,14,21,579.20
2017,04,19,14,22,572.30
2017,04,19,14,23,547.80
2017,04,19,14,24,523.10
2017,04,19,14,25,568.00
2017,04,19,14,26,607.10
2017,04,19,14,27,610.60
2017,04,19,14,28,541.80
2017,04,19,14,29,497.40
2017,04,19,14,30,454.50
2017,04,19,14,31,440.90
2017,04,19,14,32,430.50
2017,04,19,14,33,401.10
2017,04,19,14,34,367.60
2017,04,19,14,35,339.40
2017,04,19,14,36,315.30
2017,04,19,14,37,295.40
2017,04,19,14,38,272.10
2017,04,19,14,39,247.60
2017,04,19,14,40,229.80
2017,04,19,14,41,216.40
2017,04,19,14,42,208.20
2017,04,19,14,43,207.90
2017,04,19,14,44,206.60
2017,04,19,14,45,210.80
2017,04,19,14,46,216.00
2017,04,19,14,47,216.00
2017,04,19,14,48,214.00
2017,04,19,14,49,211.00
2017,04,19,14,50,211.00
2017,04,19,14,51,235.00
2017,04,19,14,52,278.80
2017,04,19,14,53,316.00
2017,04,19,14,54,333.50
2017,04,19,14,55,394.20
2017,04,19,14,56,439.50
2017,04,19,14,57,469.90
2017,04,19,14,58,507.80
2017,04,19,14,59,565.80
2017,04,19,15,00,577.80
2017,04,19,15,01,581.40
2017,04,19,15,02,545.70
2017,04,19,15,03,499.00
2017,04,19,15,04,532.70
2017,04,19,15,05,561.60
2017,04,19,15,06,564.20
2017,04,19,15,07,580.00
2017,04,19,15,08,545.80
2017,04,19,15,09,502.00
2017,04,19,15,10,533.00
2017,04,19,15,11,506.10
2017,04,19,15,12,496.20
2017,04,19,15,13,489.50
2017,04,19,15,14,484.20
2017,04,19,15,15,470.50
2017,04,19,15,16,501.40
2017,04,19,15,17,496.50
2017,04,19,15,18,474.00
2017,04,19,15,19,478.50
2017,04,19,15,20,486.50
2017,04,19,15,21,460.50
2017,04,19,15,22,343.30
2017,04,19,15,23,323.60
2017,04,19,15,24,310.30
2017,04,19,15,25,303.50
2017,04,19,15,26,307.60
2017,04,19,15,27,306.30
2017,04,19,15,28,310.00
2017,04,19,15,29,316.00
2017,04,19,15,30,314.80
2017,04,19,15,31,308.50
2017,04,19,15,32,296.20
2017,04,19,15,33,282.10
2017,04,19,15,34,263.60
2017,04,19,15,35,237.30
2017,04,19,15,36,207.40
2017,04,19,15,37,183.90
2017,04,19,15,38,166.60
2017,04,19,15,39,152.00
2017,04,19,15,40,140.80
2017,04,19,15,41,135.10
2017,04,19,15,42,131.20
2017,04,19,15,43,125.60
2017,04,19,15,44,117.10
2017,04,19,15,45,108.50
2017,04,19,15,46,100.10
2017,04,19,15,47,94.10
2017,04,19,15,48,93.00
2017,04,19,15,49,95.80
2017,04,19,15,50,100.60
2017,04,19,15,51,102.00
2017,04,19,15,52,102.00
2017,04,19,15,53,104.10
2017,04,19,15,54,111.20
2017,04,19,15,55,125.50
2017,04,19,15,56,150.80
2017,04,19,15,57,189.80
2017,04,19,15,58,249.80
2017,04,19,15,59,337.30
2017,04,19,16,00,356.30
2017,04,19,16,01,337.40
2017,04,19,16,02,344.50
2017,04,19,16,03,368.00
2017,04,19,16,04,354.60
2017,04,19,16,05,326.00
2017,04,19,16,06,302.10
2017,04,19,16,07,286.30
2017,04,19,16,08,275.90
2017,04,19,16,09,267.50
2017,04,19,16,10,264.10
2017,04,19,16,11,265.00
2017,04,19,16,12,265.80
2017,04,19,16,13,267.00
2017,04,19,16,14,270.30
2017,04,19,16,15,271.20
2017,04,19,16,16,264.00
2017,04,19,16,17,249.10
2017,04,19,16,18,235.60
2017,04,19,16,19,224.60
2017,04,19,16,20,217.10
2017,04,19,16,21,207.00
2017,04,19,16,22,204.00
2017,04,19,16,23,179.60
2017,04,19,16,24,163.10
2017,04,19,16,25,149.70
2017,04,19,16,26,138.80
2017,04,19,16,27,130.70
2017,04,19,16,28,123.40
2017,04,19,16,29,117.20
2017,04,19,16,30,109.20
2017,04,19,16,31,98.60
2017,04,19,16,32,89.20
2017,04,19,16,33,82.10
2017,04,19,16,34,77.30
2017,04,19,16,35,73.40
2017,04,19,16,36,72.00
2017,04,19,16,37,73.90
2017,04,19,16,38,75.60
2017,04,19,16,39,74.00
2017,04,19,16,40,73.20
2017,04,19,16,41,71.00
2017,04,19,16,42,69.30
2017,04,19,16,43,69.00
2017,04,19,16,44,69.10
2017,04,19,16,45,70.00
2017,04,19,16,46,70.00
2017,04,19,16,47,70.00
2017,04,19,16,48,70.00
2017,04,19,16,49,71.30
2017,04,19,16,50,73.60
2017,04,19,16,51,76.90
2017,04,19,16,52,81.80
2017,04,19,16,53,87.00
2017,04,19,16,54,90.40
2017,04,19,16,55,91.00
2017,04,19,16,56,89.10
2017,04,19,16,57,86.50
2017,04,19,16,58,83.30
2017,04,19,16,59,83.00
2017,04,19,17,00,82.50
2017,04,19,17,01,81.00
2017,04,19,17,02,80.00
2017,04,19,17,03,77.70
2017,04,19,17,04,77.00
2017,04,19,17,05,78.90
2017,04,19,17,06,81.60
2017,04,19,17,07,85.60
2017,04,19,17,08,91.20
2017,04,19,17,09,94.10
2017,04,19,17,10,96.90
2017,04,19,17,11,101.00
2017,04,19,17,12,108.90
2017,04,19,17,13,122.10
2017,04,19,17,14,134.20
2017,04,19,17,15,137.80
2017,04,19,17,16,153.00
2017,04,19,17,17,154.70